+ View the NASA Portal
+ Center for Near-Earth Object Studies
IMPORTANT:
The SSD Announcement email list is now available. Major changes are coming in the near future, including possible hostname and/or URL changes. To be notified of such changes, subscribe to this email list.
Please visit
this page
for more details.
Don't show this message again
JPL Small-Body Database Browser
Search:
[
help
]
359282 (2009 HA19)
Classification:
Main-belt Asteroid
SPK-ID:
2359282
[
Ephemeris
|
Orbit Diagram
|
Orbital Elements
|
Mission Design
|
Physical Parameters
|
Discovery Circumstances
|
Close-Approach Data
]
[ show orbit diagram ]
Orbital Elements at Epoch 2458600.5 (2019-Apr-27.0) TDB
Reference:
JPL 9
(heliocentric ecliptic J2000)
Element
Value
Uncertainty (1-sigma)
Units
e
.2132662929392253
6.1025e-08
a
2.627409816310279
2.1558e-08
au
q
2.067071864753655
1.5375e-07
au
i
12.7247169527192
6.3095e-06
deg
node
215.0203990203819
3.3639e-05
deg
peri
31.91969008995549
3.7637e-05
deg
M
103.6162904816628
1.8258e-05
deg
t
p
2458152.770517042006
(2018-Feb-03.27051704)
7.6961e-05
TDB
period
1555.5721317142
4.26
1.9145e-05
5.242e-08
d
yr
n
.2314261053283908
2.8483e-09
deg/d
Q
3.187747767866902
2.6156e-08
au
Orbit Determination Parameters
# obs. used (total)
135
data-arc span
9641 days (26.40 yr)
first obs. used
1992-05-07
last obs. used
2018-09-29
planetary ephem.
DE431
SB-pert. ephem.
SB431-N16
condition code
0
norm. resid. RMS
.54027
source
ORB
producer
Otto Matic
solution date
2019-Jul-14 12:10:33
Additional Information
Earth MOID
= 1.0657 au
Jupiter MOID
= 1.85553 au
T_jup
= 3.335
[ show covariance matrix ]
[
Ephemeris
|
Orbit Diagram
|
Orbital Elements
|
Mission Design
|
Physical Parameters
|
Discovery Circumstances
|
Close-Approach Data
]
Physical Parameter Table
Parameter
Symbol
Value
Units
Sigma
Reference
Notes
absolute magnitude
H
16.7
n/a
MPO450333
359282 (2009 HA19)
Discovered 2009-Apr-19 by Mt. Lemmon Survey at Mount Lemmon
Reference:
20130327/Numbers.arc
Last Updated:
2013-03-29
[ hide close-approach data ]
Close-Approach Data
...sorted by
Date/Time (TDB)
Date/Time (TDB)
Time Uncertainty
(days_HH:MM)
Body
Nominal Distance (au)
Minimum Distance (au)
Maximum Distance (au)
V-relative (km/s)
V-infinity (km/s)
JD (TDB)
Time Uncertainty (minutes)
Semi-major axis (km)
Semi-minor axis (km)
range-LOV angle (deg)
N-sigma
BP
Orbit Ref.
Reference
Modified
1917-Oct-06 10:07
00:03
Jupiter
1.88076505358672
1.88076353201807
1.88076657517621
3.42598240965096
3.29190434718623
2421507.921820037
3.24506586089841
369.040717563645
40.2306116872751
78.9437672840279
2108701.40817139
T
9
CATAB v2.0e-lin.ifort 2019-Jul-14 12:10:35
2019-Jul-14 12:10
1964-Apr-19 11:12
00:02
Jupiter
1.91495802484907
1.9149571760608
1.91495887364486
3.74749318678266
3.62754282938305
2438504.966502150
1.7205537123021
243.627260819265
22.7739468083027
-81.8301416951677
2214960.15148216
T
9
CATAB v2.0e-lin.ifort 2019-Jul-14 12:10:35
2019-Jul-14 12:10
2024-Apr-05 20:45
< 00:01
Jupiter
1.85031563747834
1.85031512137716
1.85031615357994
3.52467105505734
3.39230927756316
2460406.364699333
0.393942357420763
140.704635149155
21.8590003544126
-85.721314131077
2072741.11875193
T
9
CATAB v2.0e-lin.ifort 2019-Jul-14 12:10:35
2019-Jul-14 12:10
2084-Mar-29 02:26
00:02
Jupiter
1.98073836597892
1.98073704681487
1.98073968514725
3.09982521975321
2.95865797800199
2482313.601305451
2.41419335073063
235.293743308526
62.8646158498039
78.0393543444267
1673484.16338615
T
9
CATAB v2.0e-lin.ifort 2019-Jul-14 12:10:35
2019-Jul-14 12:10
2130-Oct-07 20:18
00:04
Jupiter
1.85587268216039
1.85587169397608
1.85587367039892
3.62373406289463
3.49551801057027
2499306.346044665
3.79959429797881
574.071593542885
20.3011523265308
-86.31964208569
2067963.91546566
T
9
CATAB v2.0e-lin.ifort 2019-Jul-14 12:10:35
2019-Jul-14 12:10
2190-Sep-27 15:49
00:06
Jupiter
1.90440927834083
1.90440704734857
1.90441150940691
3.23264703150136
3.09200072921238
2521211.158996700
5.9441765892644
648.339432065695
44.1622362689719
78.5678206076908
1735361.58942216
T
9
CATAB v2.0e-lin.ifort 2019-Jul-14 12:10:35
2019-Jul-14 12:10
Alternate Designations
2009 HA19
= 2006 UD258
[
Ephemeris
|
Orbit Diagram
|
Orbital Elements
|
Mission Design
|
Physical Parameters
|
Discovery Circumstances
|
Close-Approach Data
]
2019-Dec-10 19:04 UT
(server date/time)
Site Manager:
Ryan S. Park
Webmaster
:
Alan B. Chamberlin